| time (UTC) | temp F | wind direction | speed knots | gust knots | rain 1hr in | rain 24hr in | rain mn in | humidity % | barometer mb |
| 20260903053504 | 63 | 289 | 0.9 | 3.5 | 0.00 | 0.00 | 0.00 | 92 | 1011.9 |
| 20260903053006 | 63 | 298 | 1.7 | 3.5 | 0.00 | 0.00 | 0.00 | 93 | 1011.8 |
| 20260903052502 | 63 | 326 | 1.7 | 3.5 | 0.00 | 0.00 | 0.00 | 93 | 1011.8 |
| 20260903052002 | 63 | 290 | 1.7 | 3.5 | 0.00 | 0.00 | 0.00 | 93 | 1011.7 |
| 20260903051501 | 63 | 279 | 0.9 | 2.6 | 0.00 | 0.00 | 0.00 | 93 | 1011.7 |
| 20260903051003 | 63 | 290 | 0.9 | 1.7 | 0.00 | 0.00 | 0.00 | 93 | 1011.8 |
| 20260903050502 | 63 | 303 | 0.9 | 2.6 | 0.00 | 0.00 | 0.00 | 93 | 1011.7 |
| 20260903045959 | 63 | 281 | 0.9 | 3.5 | 0.00 | 0.00 | 0.00 | 93 | 1011.7 |
| 20260903045500 | 63 | 336 | 1.7 | 4.3 | 0.00 | 0.00 | 0.00 | 93 | 1011.6 |
| 20260903045000 | 63 | 278 | 2.6 | 4.3 | 0.00 | 0.00 | 0.00 | 93 | 1011.6 |
| 20260903044459 | 63 | 286 | 2.6 | 4.3 | 0.00 | 0.00 | 0.00 | 93 | 1011.5 |
| 20260903044000 | 63 | 281 | 2.6 | 3.5 | 0.00 | 0.00 | 0.00 | 93 | 1011.5 |
| 20260903043501 | 63 | 275 | 2.6 | 3.5 | 0.00 | 0.00 | 0.00 | 93 | 1011.5 |
| 20260903042956 | 64 | 275 | 1.7 | 2.6 | 0.00 | 0.00 | 0.00 | 93 | 1011.4 |
| 20260903042455 | 64 | 282 | 0.9 | 2.6 | 0.00 | 0.00 | 0.00 | 93 | 1011.4 |
| 20260903041954 | 64 | 282 | 0.9 | 1.7 | 0.00 | 0.00 | 0.00 | 93 | 1011.5 |
| 20260903041455 | 64 | 276 | 0.9 | 2.6 | 0.00 | 0.00 | 0.00 | 93 | 1011.4 |
| 20260903040952 | 64 | 275 | 0.0 | 2.6 | 0.00 | 0.00 | 0.00 | 92 | 1011.5 |
| 20260903040452 | 64 | 274 | 1.7 | 2.6 | 0.00 | 0.00 | 0.00 | 92 | 1011.6 |
| 20260903035951 | 64 | 267 | 1.7 | 2.6 | 0.00 | 0.00 | 0.00 | 92 | 1011.5 |
| 20260903035721 | 64 | 261 | 0.9 | 1.7 | 0.00 | 0.00 | 0.00 | 92 | 1011.5 |
| 20260903035221 | 64 | 271 | 0.9 | 1.7 | 0.00 | 0.00 | 0.00 | 92 | 1011.5 |
| 20260903034451 | 64 | 272 | 1.7 | 1.7 | 0.00 | 0.00 | 0.00 | 92 | 1011.6 |
| 20260903033952 | 64 | 257 | 0.9 | 1.7 | 0.00 | 0.00 | 0.00 | 91 | 1011.7 |
| 20260903033451 | 64 | 259 | 0.9 | 1.7 | 0.00 | 0.00 | 0.00 | 91 | 1011.7 |
| 20260903032950 | 65 | 275 | 0.0 | 1.7 | 0.00 | 0.00 | 0.00 | 91 | 1011.6 |
| 20260903032451 | 65 | 268 | 0.9 | 1.7 | 0.00 | 0.00 | 0.00 | 90 | 1011.7 |
| 20260903031951 | 65 | 268 | 0.9 | 1.7 | 0.00 | 0.00 | 0.00 | 90 | 1011.7 |
| 20260903031452 | 65 | 265 | 0.9 | 2.6 | 0.00 | 0.00 | 0.00 | 90 | 1011.6 |
| 20260903031218 | 65 | 269 | 0.9 | 2.6 | 0.00 | 0.00 | 0.00 | 90 | 1011.7 |
| 20260903030449 | 65 | 281 | 0.0 | 1.7 | 0.00 | 0.00 | 0.00 | 89 | 1011.7 |
| 20260903025947 | 66 | 278 | 0.0 | 1.7 | 0.00 | 0.00 | 0.00 | 89 | 1011.7 |
| 20260903025446 | 66 | 292 | 0.0 | 2.6 | 0.00 | 0.00 | 0.00 | 88 | 1011.7 |
| 20260903024946 | 66 | 272 | 0.9 | 3.5 | 0.00 | 0.00 | 0.00 | 88 | 1011.6 |
| 20260903024711 | 66 | 271 | 1.7 | 3.5 | 0.00 | 0.00 | 0.00 | 87 | 1011.6 |
| 20260903023945 | 67 | 278 | 1.7 | 3.5 | 0.00 | 0.00 | 0.00 | 86 | 1011.7 |
| 20260903023445 | 67 | 258 | 1.7 | 1.7 | 0.00 | 0.00 | 0.00 | 86 | 1011.6 |
| 20260903022945 | 67 | 251 | 0.9 | 1.7 | 0.00 | 0.00 | 0.00 | 85 | 1011.5 |
| 20260903022443 | 67 | 271 | 0.0 | 1.7 | 0.00 | 0.00 | 0.00 | 85 | 1011.6 |
| 20260903022216 | 67 | 286 | 0.9 | 2.6 | 0.00 | 0.00 | 0.00 | 85 | 1011.6 |
| 20260903021442 | 68 | 306 | 0.0 | 2.6 | 0.00 | 0.00 | 0.00 | 85 | 1011.5 |
| 20260903020939 | 68 | 302 | 0.9 | 2.6 | 0.00 | 0.00 | 0.00 | 85 | 1011.5 |
| 20260903020439 | 68 | 322 | 0.0 | 1.7 | 0.00 | 0.00 | 0.00 | 85 | 1011.4 |
| 20260903015936 | 68 | 323 | 0.0 | 3.5 | 0.00 | 0.00 | 0.00 | 86 | 1011.4 |
| 20260903015434 | 68 | 320 | 0.9 | 3.5 | 0.00 | 0.00 | 0.00 | 86 | 1011.3 |
| 20260903014935 | 68 | 329 | 0.0 | 2.6 | 0.00 | 0.00 | 0.00 | 87 | 1011.4 |
| 20260903014434 | 68 | 312 | 0.0 | 1.7 | 0.00 | 0.00 | 0.00 | 87 | 1011.3 |
| 20260903013934 | 68 | 314 | 0.0 | 1.7 | 0.00 | 0.00 | 0.00 | 87 | 1011.4 |
| 20260903013434 | 68 | 351 | 0.0 | 1.7 | 0.00 | 0.00 | 0.00 | 87 | 1011.4 |
| 20260903012936 | 68 | 293 | 0.0 | 0.0 | 0.00 | 0.00 | 0.00 | 87 | 1011.3 |
| 20260903012433 | 68 | 292 | 0.0 | 0.0 | 0.00 | 0.00 | 0.00 | 87 | 1011.3 |
| 20260903012158 | 69 | 292 | 0.0 | 0.0 | 0.00 | 0.00 | 0.00 | 87 | 1011.3 |
| 20260903011701 | 69 | 292 | 0.0 | 1.7 | 0.00 | 0.00 | 0.00 | 86 | 1011.3 |
| 20260903010932 | 69 | 25 | 0.0 | 1.7 | 0.00 | 0.00 | 0.00 | 86 | 1011.3 |
| 20260903010431 | 69 | 21 | 0.0 | 0.9 | 0.00 | 0.00 | 0.00 | 86 | 1011.2 |
| 20260903005931 | 69 | 302 | 0.0 | 0.9 | 0.00 | 0.00 | 0.00 | 86 | 1011.0 |
| 20260903005430 | 69 | 49 | 0.0 | 0.0 | 0.00 | 0.00 | 0.00 | 86 | 1010.9 |
| 20260903004429 | 69 | 59 | 0.0 | 3.5 | 0.00 | 0.00 | 0.00 | 86 | 1010.9 |
| 20260903003930 | 69 | 41 | 0.9 | 2.6 | 0.00 | 0.00 | 0.00 | 85 | 1010.9 |
| 20260903003655 | 69 | 319 | 0.0 | 2.6 | 0.00 | 0.00 | 0.00 | 85 | 1010.9 |
| 20260903002928 | 69 | 25 | 0.0 | 2.6 | 0.00 | 0.00 | 0.00 | 85 | 1010.8 |
| 20260903002427 | 70 | 17 | 0.9 | 1.7 | 0.00 | 0.00 | 0.00 | 84 | 1010.8 |
| 20260903001925 | 70 | 322 | 0.0 | 0.0 | 0.00 | 0.00 | 0.00 | 84 | 1010.8 |
| 20260903001425 | 70 | 322 | 0.0 | 0.9 | 0.00 | 0.00 | 0.00 | 84 | 1010.7 |
| 20260903001153 | 70 | 322 | 0.0 | 0.9 | 0.00 | 0.00 | 0.00 | 83 | 1010.8 |
| 20260903000426 | 70 | 21 | 0.0 | 1.7 | 0.00 | 0.00 | 0.00 | 83 | 1010.8 |
| 20260902235923 | 71 | 40 | 0.9 | 1.7 | 0.00 | 0.00 | 0.00 | 83 | 1010.7 |
| 20260902235418 | 71 | 326 | 0.0 | 0.0 | 0.00 | 0.00 | 0.00 | 82 | 1010.7 |
| 20260902234918 | 71 | 326 | 0.0 | 0.0 | 0.00 | 0.00 | 0.00 | 82 | 1010.6 |
| 20260902233918 | 71 | 340 | 0.0 | 0.9 | 0.00 | 0.00 | 0.00 | 81 | 1010.6 |
| 20260902233417 | 72 | 19 | 0.0 | 0.9 | 0.00 | 0.00 | 0.00 | 80 | 1010.5 |
| 20260902233147 | 72 | 21 | 0.0 | 0.9 | 0.00 | 0.00 | 0.00 | 80 | 1010.6 |
| 20260902232414 | 72 | 21 | 0.0 | 0.9 | 0.00 | 0.00 | 0.00 | 80 | 1010.6 |
| 20260902232146 | 72 | 21 | 0.0 | 1.7 | 0.00 | 0.00 | 0.00 | 79 | 1010.7 |
| 20260902231641 | 72 | 27 | 0.9 | 1.7 | 0.00 | 0.00 | 0.00 | 79 | 1010.7 |
| 20260902230914 | 72 | 310 | 0.0 | 1.7 | 0.00 | 0.00 | 0.00 | 79 | 1010.8 |
| 20260902230412 | 73 | 340 | 0.0 | 2.6 | 0.00 | 0.00 | 0.00 | 78 | 1010.7 |
| 20260902225912 | 73 | 7 | 0.9 | 2.6 | 0.00 | 0.00 | 0.00 | 78 | 1010.7 |
| 20260902225412 | 73 | 330 | 0.0 | 2.6 | 0.00 | 0.00 | 0.00 | 78 | 1010.8 |
| 20260902224912 | 73 | 327 | 0.0 | 2.6 | 0.00 | 0.00 | 0.00 | 79 | 1010.8 |
| 20260902224411 | 72 | 17 | 0.0 | 2.6 | 0.00 | 0.00 | 0.00 | 80 | 1010.9 |
| 20260902223913 | 72 | 322 | 0.0 | 4.3 | 0.00 | 0.00 | 0.00 | 81 | 1010.8 |
| 20260902223411 | 72 | 313 | 0.0 | 4.3 | 0.00 | 0.00 | 0.00 | 82 | 1010.8 |
| 20260902223139 | 71 | 300 | 1.7 | 4.3 | 0.00 | 0.00 | 0.00 | 83 | 1010.9 |
| 20260902222410 | 71 | 345 | 0.0 | 4.3 | 0.00 | 0.00 | 0.00 | 84 | 1010.9 |
| 20260902221909 | 71 | 351 | 0.0 | 4.3 | 0.00 | 0.00 | 0.00 | 85 | 1010.7 |
| 20260902221410 | 71 | 305 | 0.0 | 4.3 | 0.00 | 0.00 | 0.00 | 85 | 1010.7 |
| 20260902220905 | 71 | 11 | 0.0 | 2.6 | 0.00 | 0.00 | 0.00 | 85 | 1010.5 |
| 20260902220404 | 71 | 285 | 0.0 | 4.3 | 0.00 | 0.00 | 0.00 | 85 | 1010.6 |
| 20260902215904 | 71 | 7 | 0.9 | 4.3 | 0.00 | 0.00 | 0.00 | 85 | 1010.5 |
| 20260902215405 | 71 | 21 | 0.0 | 4.3 | 0.00 | 0.00 | 0.00 | 85 | 1010.5 |
| 20260902215133 | 71 | 31 | 0.9 | 4.3 | 0.00 | 0.00 | 0.00 | 85 | 1010.6 |
| 20260902214402 | 71 | 11 | 0.0 | 3.5 | 0.00 | 0.00 | 0.00 | 84 | 1010.6 |
| 20260902213905 | 71 | 306 | 0.9 | 3.5 | 0.00 | 0.00 | 0.00 | 84 | 1010.6 |
| 20260902213629 | 71 | 15 | 0.0 | 3.5 | 0.00 | 0.00 | 0.00 | 83 | 1010.6 |
| 20260902212903 | 71 | 209 | 0.0 | 3.5 | 0.00 | 0.00 | 0.00 | 83 | 1010.7 |
| 20260902212446 | 71 | 353 | 0.0 | 3.5 | 0.00 | 0.00 | 0.00 | 82 | 1010.7 |
| 20260902211902 | 72 | 345 | 0.9 | 2.6 | 0.00 | 0.00 | 0.00 | 82 | 1010.7 |
| 20260902211402 | 73 | 358 | 0.9 | 2.6 | 0.00 | 0.00 | 0.00 | 81 | 1010.7 |
| 20260902210903 | 72 | 264 | 0.9 | 2.6 | 0.00 | 0.00 | 0.00 | 81 | 1010.7 |
| 20260902210403 | 73 | 34 | 0.9 | 2.6 | 0.00 | 0.00 | 0.00 | 81 | 1010.6 |
| 20260902205905 | 73 | 8 | 0.0 | 4.3 | 0.00 | 0.00 | 0.00 | 80 | 1010.5 |
| 20260902205633 | 73 | 31 | 1.7 | 4.3 | 0.00 | 0.00 | 0.00 | 81 | 1010.4 |
| 20260902204903 | 73 | 259 | 0.9 | 3.5 | 0.00 | 0.00 | 0.00 | 81 | 1010.5 |
| 20260902204650 | 73 | 73 | 0.9 | 3.5 | 0.00 | 0.00 | 0.00 | 81 | 1010.5 |
| 20260902204134 | 74 | 316 | 0.9 | 5.2 | 0.00 | 0.00 | 0.00 | 78 | 1010.5 |
| 20260902203401 | 74 | 24 | 0.9 | 5.2 | 0.00 | 0.00 | 0.00 | 78 | 1010.5 |
| 20260902202859 | 74 | 12 | 2.6 | 5.2 | 0.00 | 0.00 | 0.00 | 78 | 1010.5 |
| 20260902202616 | 75 | 41 | 1.7 | 5.2 | 0.00 | 0.00 | 0.00 | 75 | 1010.8 |
| 20260902202536 | 74 | 329 | 2.6 | 5.2 | 0.00 | 0.00 | 0.00 | 77 | 1010.6 |
| 20260902201415 | 76 | 37 | 0.9 | 6.1 | 0.00 | 0.00 | 0.00 | 74 | 1010.7 |
| 20260902200855 | 76 | 24 | 0.0 | 7.8 | 0.00 | 0.00 | 0.00 | 72 | 1010.8 |
| 20260902200355 | 78 | 330 | 0.9 | 7.8 | 0.00 | 0.00 | 0.00 | 70 | 1010.9 |
| 20260902195854 | 81 | 34 | 2.6 | 7.8 | 0.00 | 0.00 | 0.00 | 59 | 1011.0 |
| 20260902195355 | 82 | 190 | 0.0 | 8.7 | 0.00 | 0.00 | 0.00 | 58 | 1011.0 |
| 20260902195118 | 82 | 300 | 5.2 | 8.7 | 0.00 | 0.00 | 0.00 | 57 | 1011.1 |
| 20260902194351 | 82 | 299 | 1.7 | 6.1 | 0.00 | 0.00 | 0.00 | 59 | 1011.1 |
| 20260902193851 | 82 | 255 | 3.5 | 7.8 | 0.00 | 0.00 | 0.00 | 60 | 1011.1 |
| 20260902193749 | 81 | 306 | 3.5 | 7.8 | 0.00 | 0.00 | 0.00 | 58 | 1011.1 |
| 20260902192849 | 81 | 272 | 3.5 | 9.6 | 0.00 | 0.00 | 0.00 | 60 | 1011.2 |
| 20260902192351 | 81 | 234 | 4.3 | 9.6 | 0.00 | 0.00 | 0.00 | 60 | 1011.4 |
| 20260902191850 | 81 | 269 | 1.7 | 9.6 | 0.00 | 0.00 | 0.00 | 62 | 1011.5 |
| 20260902191353 | 81 | 314 | 2.6 | 6.1 | 0.00 | 0.00 | 0.00 | 63 | 1011.4 |
| 20260902190851 | 80 | 272 | 3.5 | 10.4 | 0.00 | 0.00 | 0.00 | 66 | 1011.4 |
| 20260902190400 | 80 | 265 | 6.1 | 10.4 | 0.00 | 0.00 | 0.00 | 65 | 1011.6 |
| 20260902185852 | 80 | 307 | 4.3 | 9.6 | 0.00 | 0.00 | 0.00 | 67 | 1011.6 |
| 20260902185619 | 79 | 262 | 4.3 | 10.4 | 0.00 | 0.00 | 0.00 | 66 | 1011.6 |
| 20260902184857 | 79 | 281 | 6.1 | 10.4 | 0.00 | 0.00 | 0.00 | 65 | 1011.6 |
| 20260902184352 | 79 | 240 | 3.5 | 9.6 | 0.00 | 0.00 | 0.00 | 64 | 1011.6 |
| 20260902184117 | 79 | 317 | 4.3 | 11.3 | 0.00 | 0.00 | 0.00 | 65 | 1011.6 |
| 20260902183353 | 78 | 282 | 5.2 | 8.7 | 0.00 | 0.00 | 0.00 | 66 | 1011.6 |
| 20260902182851 | 78 | 292 | 1.7 | 8.7 | 0.00 | 0.00 | 0.00 | 67 | 1011.5 |
| 20260902182347 | 78 | 285 | 3.5 | 8.7 | 0.00 | 0.00 | 0.00 | 65 | 1011.4 |
| 20260902181847 | 78 | 261 | 2.6 | 9.6 | 0.00 | 0.00 | 0.00 | 66 | 1011.4 |
| 20260902181348 | 78 | 292 | 1.7 | 9.6 | 0.00 | 0.00 | 0.00 | 67 | 1011.2 |
| 20260902180848 | 78 | 259 | 5.2 | 8.7 | 0.00 | 0.00 | 0.00 | 66 | 1011.2 |
| 20260902180349 | 78 | 292 | 3.5 | 6.1 | 0.00 | 0.00 | 0.00 | 70 | 1011.2 |
| 20260902175848 | 77 | 292 | 1.7 | 5.2 | 0.00 | 0.00 | 0.00 | 70 | 1011.1 |
| 20260902175349 | 77 | 288 | 3.5 | 7.8 | 0.00 | 0.00 | 0.00 | 70 | 1011.0 |
| 20260902174851 | 76 | 261 | 4.3 | 8.7 | 0.00 | 0.00 | 0.00 | 71 | 1011.0 |
| 20260902174349 | 76 | 267 | 4.3 | 8.7 | 0.00 | 0.00 | 0.00 | 72 | 1011.1 |
| 20260902173850 | 77 | 257 | 1.7 | 7.8 | 0.00 | 0.00 | 0.00 | 74 | 1011.2 |
| 20260902173112 | 76 | 262 | 5.2 | 8.7 | 0.00 | 0.00 | 0.00 | 73 | 1011.5 |
| 20260902172348 | 76 | 276 | 5.2 | 12.2 | 0.00 | 0.00 | 0.00 | 76 | 1011.5 |
| 20260902171848 | 75 | 259 | 7.8 | 12.2 | 0.00 | 0.00 | 0.00 | 76 | 1011.7 |
| 20260902171347 | 75 | 252 | 5.2 | 9.6 | 0.00 | 0.00 | 0.00 | 80 | 1011.6 |
| 20260902170847 | 74 | 248 | 5.2 | 8.7 | 0.00 | 0.00 | 0.00 | 80 | 1011.6 |
| 20260902170346 | 74 | 217 | 3.5 | 11.3 | 0.00 | 0.00 | 0.00 | 81 | 1011.6 |
| 20260902165846 | 74 | 243 | 5.2 | 11.3 | 0.00 | 0.00 | 0.00 | 81 | 1011.5 |
| 20260902165348 | 74 | 254 | 3.5 | 10.4 | 0.00 | 0.00 | 0.00 | 82 | 1011.6 |
| 20260902165114 | 74 | 268 | 3.5 | 7.8 | 0.00 | 0.00 | 0.00 | 85 | 1011.5 |
| 20260902164347 | 72 | 282 | 2.6 | 7.8 | 0.00 | 0.00 | 0.00 | 86 | 1011.5 |
| 20260902163846 | 72 | 272 | 3.5 | 8.7 | 0.00 | 0.00 | 0.00 | 87 | 1011.7 |
| 20260902163351 | 72 | 293 | 4.3 | 8.7 | 0.00 | 0.00 | 0.00 | 87 | 1011.8 |
| 20260902162847 | 72 | 262 | 4.3 | 8.7 | 0.00 | 0.00 | 0.00 | 88 | 1011.8 |
| 20260902162617 | 72 | 267 | 3.5 | 8.7 | 0.00 | 0.00 | 0.00 | 88 | 1011.7 |
| 20260902161844 | 72 | 267 | 3.5 | 6.1 | 0.00 | 0.00 | 0.00 | 88 | 1011.5 |
| 20260902161346 | 71 | 250 | 3.5 | 5.2 | 0.00 | 0.00 | 0.00 | 89 | 1011.6 |
| 20260902160843 | 71 | 258 | 1.7 | 4.3 | 0.00 | 0.00 | 0.00 | 89 | 1011.5 |
| 20260902160343 | 71 | 317 | 0.9 | 5.2 | 0.00 | 0.00 | 0.00 | 90 | 1011.6 |
| 20260902155845 | 72 | 358 | 0.0 | 5.2 | 0.00 | 0.00 | 0.00 | 89 | 1011.8 |
| 20260902155341 | 72 | 307 | 0.9 | 5.2 | 0.00 | 0.00 | 0.00 | 89 | 1011.9 |
| 20260902154839 | 72 | 289 | 1.7 | 5.2 | 0.00 | 0.00 | 0.00 | 90 | 1011.5 |
| 20260902154337 | 71 | 336 | 1.7 | 5.2 | 0.00 | 0.00 | 0.00 | 93 | 1011.5 |
| 20260902153837 | 71 | 255 | 0.0 | 0.9 | 0.00 | 0.00 | 0.00 | 93 | 1011.4 |
| 20260902153334 | 71 | 12 | 0.0 | 0.0 | 0.00 | 0.00 | 0.00 | 94 | 1011.3 |
| 20260902152835 | 70 | 12 | 0.0 | 0.9 | 0.00 | 0.00 | 0.00 | 94 | 1011.1 |
| 20260902152334 | 70 | 12 | 0.0 | 1.7 | 0.00 | 0.00 | 0.00 | 94 | 1010.9 |
| 20260902151834 | 70 | 34 | 0.0 | 1.7 | 0.00 | 0.00 | 0.00 | 93 | 1010.8 |
| 20260902151334 | 70 | 300 | 0.9 | 2.6 | 0.00 | 0.00 | 0.00 | 93 | 1010.9 |
| 20260902150834 | 70 | 62 | 1.7 | 2.6 | 0.00 | 0.00 | 0.00 | 92 | 1010.7 |
| 20260902150559 | 70 | 41 | 0.0 | 1.7 | 0.00 | 0.00 | 0.00 | 91 | 1010.8 |
| 20260902150057 | 71 | 309 | 0.0 | 2.6 | 0.00 | 0.00 | 0.00 | 91 | 1010.8 |
| 20260902145331 | 71 | 61 | 1.7 | 2.6 | 0.00 | 0.00 | 0.00 | 91 | 1010.2 |
| 20260902144832 | 71 | 42 | 0.9 | 1.7 | 0.00 | 0.00 | 0.00 | 91 | 1009.9 |
| 20260902144331 | 71 | 92 | 0.0 | 1.7 | 0.00 | 0.00 | 0.00 | 91 | 1009.6 |
| 20260902143831 | 71 | 92 | 0.0 | 2.6 | 0.00 | 0.00 | 0.00 | 92 | 1009.5 |
| 20260902143331 | 71 | 90 | 0.9 | 2.6 | 0.00 | 0.00 | 0.00 | 92 | 1009.2 |
| 20260902142832 | 71 | 110 | 0.9 | 2.6 | 0.00 | 0.00 | 0.00 | 91 | 1009.5 |
| 20260902142330 | 71 | 72 | 0.0 | 2.6 | 0.00 | 0.00 | 0.00 | 91 | 1010.0 |
| 20260902141832 | 71 | 19 | 0.0 | 3.5 | 0.00 | 0.00 | 0.00 | 92 | 1010.9 |
| 20260902140830 | 71 | 290 | 0.0 | 4.3 | 0.00 | 0.00 | 0.00 | 93 | 1010.9 |
| 20260902140409 | 71 | 254 | 0.9 | 9.6 | 0.00 | 0.00 | 0.00 | 94 | 1010.9 |
| 20260902135332 | 71 | 274 | 3.5 | 11.3 | 0.00 | 0.00 | 0.00 | 96 | 1012.5 |
| 20260902134831 | 71 | 271 | 5.2 | 11.3 | 0.00 | 0.00 | 0.00 | 97 | 1012.8 |
| 20260902134331 | 71 | 251 | 6.1 | 12.2 | 0.00 | 0.00 | 0.00 | 97 | 1012.9 |
| 20260902133332 | 71 | 319 | 4.3 | 11.3 | 0.00 | 0.00 | 0.00 | 98 | 1012.8 |
| 20260902132832 | 71 | 326 | 5.2 | 10.4 | 0.00 | 0.00 | 0.00 | 98 | 1012.7 |
| 20260902132604 | 71 | 271 | 5.2 | 11.3 | 0.00 | 0.00 | 0.00 | 98 | 1012.4 |
| 20260902131831 | 71 | 290 | 5.2 | 11.3 | 0.00 | 0.00 | 0.00 | 98 | 1012.3 |
| 20260902131330 | 71 | 327 | 3.5 | 6.1 | 0.00 | 0.00 | 0.00 | 98 | 1012.1 |
| 20260902131106 | 71 | 275 | 3.5 | 7.8 | 0.00 | 0.00 | 0.00 | 98 | 1012.0 |
| 20260902130332 | 71 | 267 | 5.2 | 8.7 | 0.00 | 0.00 | 0.00 | 98 | 1012.0 |
| 20260902125831 | 70 | 281 | 2.6 | 8.7 | 0.00 | 0.00 | 0.00 | 98 | 1011.8 |
| 20260902125558 | 69 | 269 | 1.7 | 4.3 | 0.00 | 0.00 | 0.00 | 98 | 1011.7 |
| 20260902125104 | 68 | 278 | 0.9 | 1.7 | 0.00 | 0.00 | 0.00 | 98 | 1011.6 |
| 20260902124332 | 68 | 312 | 0.0 | 0.9 | 0.00 | 0.00 | 0.00 | 98 | 1011.5 |
| 20260902123834 | 68 | 312 | 0.0 | 1.7 | 0.00 | 0.00 | 0.00 | 98 | 1011.3 |
| 20260902123557 | 69 | 27 | 0.9 | 1.7 | 0.00 | 0.00 | 0.00 | 98 | 1011.2 |
| 20260902122827 | 69 | 34 | 0.0 | 1.7 | 0.00 | 0.00 | 0.00 | 98 | 1011.2 |
| 20260902122327 | 69 | 52 | 0.9 | 1.7 | 0.00 | 0.00 | 0.00 | 98 | 1011.3 |
| 20260902121827 | 69 | 290 | 0.0 | 0.9 | 0.00 | 0.00 | 0.00 | 98 | 1011.3 |
| 20260902120827 | 68 | 316 | 0.0 | 0.0 | 0.00 | 0.00 | 0.00 | 98 | 1011.1 |
| 20260902120328 | 68 | 316 | 0.0 | 0.9 | 0.00 | 0.00 | 0.00 | 98 | 1010.9 |
| 20260902115827 | 68 | 316 | 0.0 | 2.6 | 0.00 | 0.00 | 0.00 | 98 | 1010.8 |
| 20260902115324 | 68 | 324 | 0.0 | 2.6 | 0.00 | 0.00 | 0.00 | 98 | 1010.6 |
| 20260902115054 | 68 | 306 | 0.0 | 2.6 | 0.00 | 0.00 | 0.00 | 97 | 1010.7 |
| 20260902113824 | 69 | 19 | 0.0 | 1.7 | 0.00 | 0.00 | 0.00 | 98 | 1010.6 |
| 20260902113325 | 69 | 19 | 0.0 | 0.9 | 0.00 | 0.00 | 0.00 | 97 | 1010.5 |
| 20260902112824 | 69 | 345 | 0.0 | 0.0 | 0.00 | 0.00 | 0.00 | 97 | 1010.5 |
| 20260902112324 | 69 | 345 | 0.0 | 0.0 | 0.00 | 0.00 | 0.00 | 97 | 1010.4 |
| 20260902111824 | 69 | 345 | 0.0 | 0.0 | 0.00 | 0.00 | 0.00 | 97 | 1010.4 |
| 20260902111323 | 70 | 345 | 0.0 | 0.0 | 0.00 | 0.00 | 0.00 | 98 | 1010.3 |
| 20260902110822 | 70 | 345 | 0.0 | 0.0 | 0.00 | 0.00 | 0.00 | 98 | 1010.3 |
| 20260902110319 | 70 | 345 | 0.0 | 0.0 | 0.00 | 0.00 | 0.00 | 98 | 1010.3 |
| 20260902105821 | 70 | 309 | 0.0 | 0.9 | 0.00 | 0.00 | 0.00 | 98 | 1010.4 |
| 20260902105321 | 71 | 309 | 0.0 | 1.7 | 0.00 | 0.00 | 0.00 | 98 | 1010.4 |
| 20260902104818 | 71 | 274 | 0.0 | 2.6 | 0.00 | 0.00 | 0.00 | 98 | 1010.6 |
| 20260902104318 | 71 | 265 | 0.0 | 2.6 | 0.00 | 0.00 | 0.00 | 98 | 1010.6 |
| 20260902104050 | 71 | 299 | 0.0 | 2.6 | 0.00 | 0.00 | 0.00 | 98 | 1010.4 |
| 20260902103319 | 71 | 320 | 0.0 | 2.6 | 0.00 | 0.00 | 0.00 | 98 | 1010.5 |
| 20260902102815 | 71 | 312 | 0.0 | 2.6 | 0.00 | 0.00 | 0.00 | 98 | 1010.5 |
| 20260902102540 | 71 | 293 | 0.9 | 4.3 | 0.00 | 0.00 | 0.00 | 98 | 1010.5 |
| 20260902101814 | 71 | 300 | 0.9 | 4.3 | 0.00 | 0.00 | 0.00 | 98 | 1010.5 |
| 20260902101316 | 71 | 309 | 0.0 | 4.3 | 0.00 | 0.00 | 0.00 | 98 | 1010.4 |
| 20260902100814 | 71 | 306 | 0.0 | 3.5 | 0.00 | 0.00 | 0.00 | 98 | 1010.4 |
| 20260902100313 | 71 | 343 | 0.9 | 3.5 | 0.00 | 0.00 | 0.00 | 98 | 1010.4 |
| 20260902095814 | 71 | 269 | 0.9 | 2.6 | 0.00 | 0.00 | 0.00 | 98 | 1010.4 |
| 20260902095308 | 70 | 267 | 0.9 | 3.5 | 0.00 | 0.00 | 0.00 | 97 | 1010.3 |
| 20260902095037 | 70 | 265 | 0.9 | 3.5 | 0.00 | 0.00 | 0.00 | 97 | 1010.3 |
| 20260902094307 | 70 | 279 | 2.6 | 4.3 | 0.00 | 0.00 | 0.00 | 97 | 1010.4 |
| 20260902093809 | 70 | 289 | 2.6 | 4.3 | 0.00 | 0.00 | 0.00 | 98 | 1010.3 |
| 20260902093532 | 70 | 257 | 1.7 | 3.5 | 0.00 | 0.00 | 0.00 | 97 | 1010.1 |
| 20260902092804 | 69 | 265 | 1.7 | 3.5 | 0.00 | 0.00 | 0.00 | 97 | 1010.2 |
| 20260902092305 | 69 | 250 | 1.7 | 2.6 | 0.00 | 0.00 | 0.00 | 97 | 1010.1 |
| 20260902091804 | 69 | 258 | 0.9 | 2.6 | 0.00 | 0.00 | 0.00 | 97 | 1010.1 |
| 20260902091304 | 69 | 259 | 1.7 | 2.6 | 0.00 | 0.00 | 0.00 | 97 | 1010.2 |
| 20260902090804 | 69 | 259 | 0.9 | 2.6 | 0.00 | 0.00 | 0.00 | 97 | 1010.2 |
| 20260902090305 | 69 | 261 | 1.7 | 2.6 | 0.00 | 0.00 | 0.00 | 97 | 1010.0 |
| 20260902085804 | 69 | 261 | 1.7 | 2.6 | 0.00 | 0.00 | 0.00 | 97 | 1010.1 |
| 20260902085308 | 69 | 230 | 0.9 | 0.9 | 0.00 | 0.00 | 0.00 | 97 | 1010.1 |
| 20260902084803 | 69 | 231 | 0.0 | 0.0 | 0.00 | 0.00 | 0.00 | 97 | 1010.1 |
| 20260902084301 | 69 | 353 | 0.0 | 0.0 | 0.00 | 0.00 | 0.00 | 97 | 1010.1 |
| 20260902084028 | 69 | 353 | 0.0 | 0.0 | 0.00 | 0.00 | 0.00 | 97 | 1010.0 |
| 20260902083528 | 70 | 310 | 0.0 | 1.7 | 0.00 | 0.00 | 0.00 | 97 | 1010.1 |
| 20260902083034 | 70 | 310 | 0.0 | 1.7 | 0.00 | 0.00 | 0.00 | 97 | 1010.0 |
| 20260902082259 | 69 | 313 | 0.0 | 0.9 | 0.00 | 0.00 | 0.00 | 97 | 1010.1 |
| 20260902081757 | 69 | 310 | 0.0 | 1.7 | 0.00 | 0.00 | 0.00 | 97 | 1010.0 |
| 20260902081258 | 69 | 309 | 0.0 | 1.7 | 0.00 | 0.00 | 0.00 | 97 | 1010.1 |
| 20260902080757 | 69 | 25 | 0.0 | 2.6 | 0.00 | 0.00 | 0.00 | 96 | 1010.1 |
| 20260902080523 | 69 | 27 | 1.7 | 2.6 | 0.00 | 0.00 | 0.00 | 96 | 1010.1 |
| 20260902075756 | 69 | 316 | 0.0 | 0.0 | 0.00 | 0.00 | 0.00 | 96 | 1010.0 |
| 20260902075255 | 70 | 27 | 0.0 | 0.0 | 0.00 | 0.00 | 0.00 | 96 | 1009.9 |
| 20260902074754 | 70 | 27 | 0.0 | 0.0 | 0.00 | 0.00 | 0.00 | 96 | 1009.9 |
| 20260902074255 | 70 | 25 | 0.0 | 0.0 | 0.00 | 0.00 | 0.00 | 96 | 1009.9 |
| 20260902073754 | 70 | 25 | 0.0 | 2.6 | 0.00 | 0.00 | 0.00 | 96 | 1010.0 |
| 20260902073254 | 71 | 25 | 1.7 | 2.6 | 0.00 | 0.00 | 0.00 | 96 | 1010.0 |
| 20260902072752 | 71 | 15 | 0.0 | 1.7 | 0.00 | 0.00 | 0.00 | 96 | 1010.0 |
| 20260902072253 | 71 | 15 | 0.0 | 4.3 | 0.00 | 0.00 | 0.00 | 96 | 1010.1 |
| 20260902071753 | 71 | 329 | 0.9 | 6.1 | 0.00 | 0.00 | 0.00 | 96 | 1010.0 |
| 20260902071253 | 71 | 254 | 4.3 | 6.1 | 0.00 | 0.00 | 0.00 | 96 | 1009.9 |
| 20260902070748 | 71 | 262 | 3.5 | 5.2 | 0.00 | 0.00 | 0.00 | 96 | 1009.9 |
| 20260902070248 | 71 | 261 | 3.5 | 8.7 | 0.00 | 0.00 | 0.00 | 96 | 1009.7 |
| 20260902065748 | 71 | 268 | 3.5 | 8.7 | 0.00 | 0.00 | 0.00 | 96 | 1009.6 |
| 20260902065516 | 71 | 255 | 3.5 | 6.1 | 0.00 | 0.00 | 0.00 | 96 | 1009.5 |
| 20260902064747 | 71 | 255 | 3.5 | 4.3 | 0.00 | 0.00 | 0.00 | 96 | 1009.5 |
| 20260902064246 | 71 | 259 | 2.6 | 4.3 | 0.00 | 0.00 | 0.00 | 96 | 1009.4 |
| 20260902063745 | 71 | 254 | 2.6 | 4.3 | 0.00 | 0.00 | 0.00 | 96 | 1009.4 |
| 20260902063244 | 71 | 247 | 2.6 | 4.3 | 0.00 | 0.00 | 0.00 | 96 | 1009.4 |
| 20260902063016 | 70 | 227 | 2.6 | 4.3 | 0.00 | 0.00 | 0.00 | 96 | 1009.2 |
| 20260902061743 | 70 | 223 | 3.5 | 6.1 | 0.00 | 0.00 | 0.00 | 96 | 1009.4 |
| 20260902061242 | 70 | 233 | 1.7 | 5.2 | 0.00 | 0.00 | 0.00 | 96 | 1009.4 |
| 20260902060742 | 70 | 216 | 1.7 | 5.2 | 0.00 | 0.00 | 0.00 | 96 | 1009.6 |
| 20260902060244 | 70 | 244 | 2.6 | 5.2 | 0.00 | 0.00 | 0.00 | 96 | 1009.7 |
| 20260902055740 | 70 | 250 | 2.6 | 4.3 | 0.00 | 0.00 | 0.00 | 96 | 1009.7 |
| 20260902055238 | 70 | 221 | 1.7 | 4.3 | 0.00 | 0.00 | 0.00 | 95 | 1009.7 |
| 20260902054739 | 70 | 241 | 1.7 | 4.3 | 0.00 | 0.00 | 0.00 | 95 | 1009.7 |
| 20260902054240 | 70 | 216 | 1.7 | 4.3 | 0.00 | 0.00 | 0.00 | 95 | 1009.8 |